User: anonymous   Login
Location: Unspecified
(0.0000°N, 0.0000°E)
Time: 23:23:46
(UTC+00:00)
Language:

STARLINK-34043 - Orbit

View from above orbital plane
View from above orbital plane
View from above satellite
View from above satellite

Ground track
Ground track

The orbit is defined by the following mean orbital elements,

1 63823U          26145.27394339 +.00000000 +00000-0 +63655-3 0 00001
2 63823  43.0013  95.9882 0001430 260.4643  99.6047 15.27600981    03
Epoch (UTC): 25 May 2026 06:34:28
Eccentricity: 0.0001430
inclination: 43.0013°
perigee height: 482 km
apogee height: 484 km
right ascension of ascending node: 95.9882°
argument of perigee: 260.4643°
revolutions per day: 15.27600981
mean anomaly at epoch: 99.6047°

The dashed part of the orbit path shows where the satellite is in the earth's shadow,  

DLR